| time (UTC) | temp F | wind direction | speed MPH | gust MPH | rain 1hr in | rain 24hr in | rain mn in | humidity % | barometer mb |
| 20260505230642 | 68 | 171 | 4.0 | 5.0 | 0.00 | 0.04 | 0.04 | 41 | 1181.8 |
| 20260505230138 | 69 | 180 | 4.0 | 6.0 | 0.00 | 0.04 | 0.04 | 42 | 1182.0 |
| 20260505225634 | 68 | 73 | 6.0 | 6.0 | 0.00 | 0.04 | 0.04 | 43 | 1182.0 |
| 20260505225131 | 68 | 102 | 7.0 | 9.0 | 0.00 | 0.04 | 0.04 | 43 | 1182.1 |
| 20260505224627 | 67 | 248 | 6.0 | 7.0 | 0.00 | 0.04 | 0.04 | 43 | 1182.0 |
| 20260505224125 | 68 | 193 | 5.0 | 9.0 | 0.00 | 0.04 | 0.04 | 44 | 1182.2 |
| 20260505223622 | 68 | 171 | 3.0 | 10.0 | 0.00 | 0.04 | 0.04 | 43 | 1182.2 |
| 20260505223118 | 68 | 207 | 4.0 | 10.0 | 0.00 | 0.04 | 0.04 | 43 | 1182.3 |
| 20260505222615 | 67 | 96 | 3.0 | 6.0 | 0.00 | 0.04 | 0.04 | 45 | 1182.2 |
| 20260505222111 | 67 | 56 | 5.0 | 8.0 | 0.00 | 0.04 | 0.04 | 43 | 1182.4 |
| 20260505221608 | 67 | 165 | 4.0 | 6.0 | 0.00 | 0.04 | 0.04 | 47 | 1182.6 |
| 20260505221104 | 67 | 72 | 5.0 | 6.0 | 0.00 | 0.04 | 0.04 | 43 | 1182.4 |
| 20260505220602 | 66 | 55 | 4.0 | 5.0 | 0.00 | 0.04 | 0.04 | 47 | 1182.7 |
| 20260505220100 | 66 | 83 | 2.0 | 6.0 | 0.00 | 0.04 | 0.04 | 45 | 1182.6 |
| 20260505215557 | 66 | 160 | 4.0 | 6.0 | 0.00 | 0.04 | 0.04 | 45 | 1182.7 |
| 20260505215055 | 66 | 258 | 1.0 | 4.0 | 0.00 | 0.04 | 0.04 | 46 | 1182.7 |
| 20260505214553 | 66 | 169 | 3.0 | 4.0 | 0.00 | 0.04 | 0.04 | 46 | 1182.6 |
| 20260505214050 | 65 | 142 | 2.0 | 6.0 | 0.00 | 0.04 | 0.04 | 45 | 1182.7 |
| 20260505213548 | 65 | 179 | 2.0 | 4.0 | 0.00 | 0.04 | 0.04 | 47 | 1182.7 |
| 20260505213043 | 65 | 61 | 3.0 | 6.0 | 0.00 | 0.04 | 0.04 | 46 | 1182.7 |
| 20260505212540 | 64 | 200 | 3.0 | 6.0 | 0.00 | 0.04 | 0.04 | 49 | 1182.7 |
| 20260505212038 | 64 | 179 | 3.0 | 7.0 | 0.00 | 0.04 | 0.04 | 49 | 1182.8 |
| 20260505211534 | 64 | 156 | 6.0 | 9.0 | 0.00 | 0.04 | 0.04 | 49 | 1183.0 |
| 20260505211031 | 65 | 127 | 6.0 | 7.0 | 0.00 | 0.04 | 0.04 | 50 | 1183.0 |
| 20260505210528 | 64 | 203 | 1.0 | 4.0 | 0.00 | 0.04 | 0.04 | 49 | 1183.2 |
| 20260505210025 | 64 | 150 | 2.0 | 6.0 | 0.00 | 0.04 | 0.04 | 53 | 1183.1 |
| 20260505205523 | 63 | 129 | 3.0 | 6.0 | 0.00 | 0.04 | 0.04 | 51 | 1183.2 |
| 20260505205020 | 62 | 117 | 7.0 | 9.0 | 0.00 | 0.04 | 0.04 | 54 | 1183.3 |
| 20260505204518 | 62 | 164 | 4.0 | 7.0 | 0.00 | 0.04 | 0.04 | 55 | 1183.3 |
| 20260505204015 | 62 | 57 | 0.0 | 6.0 | 0.00 | 0.04 | 0.04 | 53 | 1183.2 |
| 20260505203511 | 62 | 62 | 4.0 | 6.0 | 0.00 | 0.04 | 0.04 | 58 | 1183.5 |
| 20260505203008 | 62 | 151 | 6.0 | 9.0 | 0.00 | 0.04 | 0.04 | 56 | 1183.2 |
| 20260505202504 | 61 | 110 | 4.0 | 7.0 | 0.00 | 0.04 | 0.04 | 58 | 1183.2 |
| 20260505202000 | 61 | 133 | 3.0 | 7.0 | 0.00 | 0.04 | 0.04 | 57 | 1183.5 |
| 20260505201457 | 61 | 127 | 4.0 | 7.0 | 0.00 | 0.04 | 0.04 | 63 | 1183.2 |
| 20260505200955 | 60 | 180 | 2.0 | 6.0 | 0.00 | 0.04 | 0.04 | 59 | 1183.6 |
| 20260505200453 | 60 | 174 | 5.0 | 8.0 | 0.00 | 0.04 | 0.04 | 63 | 1183.5 |
| 20260505195948 | 60 | 161 | 2.0 | 7.0 | 0.00 | 0.04 | 0.04 | 60 | 1183.5 |
| 20260505195445 | 59 | 136 | 1.0 | 7.0 | 0.00 | 0.04 | 0.04 | 58 | 1183.5 |
| 20260505194943 | 59 | 99 | 5.0 | 5.0 | 0.00 | 0.04 | 0.04 | 58 | 1183.7 |
| 20260505194440 | 58 | 158 | 4.0 | 7.0 | 0.00 | 0.04 | 0.04 | 64 | 1183.8 |
| 20260505193940 | 58 | 126 | 2.0 | 6.0 | 0.00 | 0.04 | 0.04 | 64 | 1183.6 |
| 20260505193438 | 58 | 179 | 5.0 | 6.0 | 0.00 | 0.04 | 0.04 | 65 | 1183.6 |
| 20260505192935 | 57 | 106 | 1.0 | 3.0 | 0.00 | 0.04 | 0.04 | 66 | 1183.6 |
| 20260505192433 | 57 | 185 | 3.0 | 7.0 | 0.00 | 0.04 | 0.04 | 68 | 1183.6 |
| 20260505191931 | 57 | 190 | 5.0 | 6.0 | 0.00 | 0.04 | 0.04 | 68 | 1183.6 |
| 20260505191430 | 57 | 135 | 4.0 | 9.0 | 0.00 | 0.04 | 0.04 | 67 | 1183.5 |
| 20260505190926 | 57 | 130 | 6.0 | 8.0 | 0.00 | 0.04 | 0.04 | 68 | 1183.3 |
| 20260505190421 | 57 | 81 | 4.0 | 8.0 | 0.00 | 0.04 | 0.04 | 67 | 1183.7 |
| 20260505185916 | 57 | 77 | 3.0 | 6.0 | 0.00 | 0.04 | 0.04 | 69 | 1183.5 |
| 20260505185414 | 57 | 138 | 3.0 | 7.0 | 0.00 | 0.04 | 0.04 | 67 | 1183.5 |
| 20260505184910 | 57 | 159 | 3.0 | 9.0 | 0.00 | 0.04 | 0.04 | 65 | 1183.6 |
| 20260505184407 | 56 | 46 | 2.0 | 4.0 | 0.00 | 0.04 | 0.04 | 70 | 1183.6 |
| 20260505183904 | 55 | 101 | 2.0 | 4.0 | 0.00 | 0.04 | 0.04 | 69 | 1183.5 |
| 20260505183401 | 55 | 118 | 6.0 | 6.0 | 0.00 | 0.04 | 0.04 | 69 | 1183.5 |
| 20260505182857 | 54 | 103 | 3.0 | 5.0 | 0.00 | 0.04 | 0.04 | 69 | 1183.5 |
| 20260505182355 | 54 | 197 | 5.0 | 6.0 | 0.00 | 0.04 | 0.04 | 70 | 1183.5 |
| 20260505181851 | 53 | 110 | 2.0 | 7.0 | 0.00 | 0.04 | 0.04 | 72 | 1183.3 |
| 20260505181348 | 53 | 222 | 4.0 | 7.0 | 0.00 | 0.04 | 0.04 | 73 | 1183.5 |
| 20260505180845 | 53 | 161 | 3.0 | 5.0 | 0.00 | 0.04 | 0.04 | 72 | 1183.5 |
| 20260505180341 | 53 | 176 | 3.0 | 6.0 | 0.00 | 0.04 | 0.04 | 73 | 1183.5 |
| 20260505175838 | 52 | 232 | 3.0 | 6.0 | 0.00 | 0.04 | 0.04 | 75 | 1183.5 |
| 20260505175334 | 52 | 216 | 2.0 | 7.0 | 0.00 | 0.04 | 0.04 | 76 | 1183.2 |
| 20260505174831 | 52 | 237 | 4.0 | 5.0 | 0.00 | 0.04 | 0.04 | 75 | 1183.3 |
| 20260505174329 | 52 | 244 | 6.0 | 6.0 | 0.00 | 0.04 | 0.04 | 75 | 1183.3 |
| 20260505173824 | 51 | 208 | 4.0 | 7.0 | 0.00 | 0.04 | 0.04 | 77 | 1183.3 |
| 20260505173320 | 51 | 227 | 4.0 | 6.0 | 0.00 | 0.04 | 0.04 | 77 | 1183.0 |
| 20260505172818 | 51 | 209 | 6.0 | 6.0 | 0.00 | 0.04 | 0.04 | 76 | 1183.1 |
| 20260505172316 | 51 | 217 | 3.0 | 4.0 | 0.00 | 0.04 | 0.04 | 78 | 1182.9 |
| 20260505171815 | 51 | 227 | 6.0 | 7.0 | 0.00 | 0.04 | 0.04 | 77 | 1183.0 |
| 20260505171313 | 51 | 195 | 5.0 | 7.0 | 0.00 | 0.04 | 0.04 | 78 | 1183.0 |
| 20260505170808 | 51 | 249 | 5.0 | 11.0 | 0.00 | 0.04 | 0.04 | 77 | 1182.9 |
| 20260505170306 | 51 | 222 | 6.0 | 10.0 | 0.00 | 0.04 | 0.04 | 78 | 1182.7 |
| 20260505165801 | 51 | 234 | 5.0 | 9.0 | 0.00 | 0.04 | 0.04 | 79 | 1182.7 |
| 20260505165257 | 51 | 222 | 7.0 | 11.0 | 0.00 | 0.04 | 0.04 | 79 | 1182.8 |
| 20260505164753 | 51 | 223 | 6.0 | 12.0 | 0.00 | 0.04 | 0.04 | 79 | 1182.8 |
| 20260505164250 | 51 | 222 | 4.0 | 10.0 | 0.00 | 0.04 | 0.04 | 80 | 1182.4 |
| 20260505163748 | 51 | 193 | 3.0 | 9.0 | 0.00 | 0.04 | 0.04 | 81 | 1182.7 |
| 20260505163247 | 51 | 209 | 4.0 | 9.0 | 0.00 | 0.04 | 0.04 | 80 | 1182.4 |
| 20260505162744 | 51 | 225 | 5.0 | 10.0 | 0.00 | 0.04 | 0.04 | 80 | 1182.4 |
| 20260505162241 | 51 | 189 | 2.0 | 6.0 | 0.00 | 0.04 | 0.04 | 81 | 1182.4 |
| 20260505161737 | 51 | 207 | 3.0 | 7.0 | 0.00 | 0.04 | 0.04 | 80 | 1182.4 |
| 20260505161235 | 51 | 180 | 3.0 | 7.0 | 0.00 | 0.04 | 0.04 | 81 | 1182.3 |
| 20260505160732 | 51 | 190 | 5.0 | 6.0 | 0.00 | 0.04 | 0.04 | 77 | 1182.6 |
| 20260505160230 | 51 | 189 | 5.0 | 5.0 | 0.00 | 0.04 | 0.04 | 78 | 1182.4 |
| 20260505153209 | 50 | 265 | 4.0 | 5.0 | 0.00 | 0.04 | 0.04 | 82 | 1182.0 |
| 20260505152706 | 50 | 273 | 3.0 | 4.0 | 0.00 | 0.04 | 0.04 | 83 | 1182.1 |
| 20260505152202 | 50 | 310 | 1.0 | 6.0 | 0.00 | 0.04 | 0.04 | 84 | 1182.0 |
| 20260505151657 | 50 | 199 | 1.0 | 4.0 | 0.00 | 0.04 | 0.04 | 82 | 1182.0 |
| 20260505151155 | 50 | 308 | 1.0 | 3.0 | 0.00 | 0.04 | 0.04 | 84 | 1182.0 |
| 20260505150651 | 49 | 230 | 0.0 | 2.0 | 0.00 | 0.04 | 0.04 | 84 | 1182.0 |
| 20260505150148 | 49 | 213 | 1.0 | 3.0 | 0.00 | 0.04 | 0.04 | 84 | 1182.0 |
| 20260505140616 | 47 | 277 | 2.0 | 3.0 | 0.00 | 0.04 | 0.04 | 88 | 1181.5 |
| 20260505140114 | 47 | 237 | 0.0 | 1.0 | 0.00 | 0.04 | 0.04 | 88 | 1181.3 |
| 20260505125030 | 47 | 166 | 2.0 | 4.0 | 0.00 | 0.04 | 0.04 | 86 | 1180.2 |
| 20260505124527 | 46 | 137 | 3.0 | 6.0 | 0.00 | 0.04 | 0.04 | 86 | 1180.4 |
| 20260505124023 | 47 | 150 | 2.0 | 4.0 | 0.00 | 0.04 | 0.04 | 86 | 1180.1 |
| 20260505123520 | 46 | 216 | 4.0 | 8.0 | 0.00 | 0.04 | 0.04 | 86 | 1180.3 |
| 20260505123015 | 46 | 181 | 3.0 | 4.0 | 0.00 | 0.04 | 0.04 | 87 | 1180.1 |
| 20260505122513 | 46 | 180 | 2.0 | 4.0 | 0.00 | 0.04 | 0.04 | 87 | 1180.1 |
| 20260505122010 | 46 | 271 | 3.0 | 3.0 | 0.00 | 0.04 | 0.04 | 87 | 1180.2 |
| 20260505121506 | 46 | 263 | 3.0 | 4.0 | 0.00 | 0.04 | 0.04 | 87 | 1180.2 |
| 20260505121003 | 46 | 238 | 4.0 | 4.0 | 0.00 | 0.04 | 0.04 | 88 | 1180.1 |
| 20260505120459 | 46 | 219 | 2.0 | 5.0 | 0.00 | 0.04 | 0.04 | 88 | 1179.8 |
| 20260505115958 | 46 | 212 | 5.0 | 5.0 | 0.00 | 0.04 | 0.04 | 88 | 1180.1 |
| 20260505115454 | 46 | 248 | 10.0 | 10.0 | 0.00 | 0.04 | 0.04 | 87 | 1179.8 |
| 20260505114953 | 46 | 173 | 4.0 | 6.0 | 0.00 | 0.04 | 0.04 | 88 | 1180.2 |
| 20260505114448 | 46 | 196 | 2.0 | 6.0 | 0.00 | 0.04 | 0.04 | 88 | 1180.2 |
| 20260505113946 | 46 | 235 | 4.0 | 5.0 | 0.00 | 0.04 | 0.04 | 88 | 1180.0 |
| 20260505113442 | 46 | 157 | 3.0 | 3.0 | 0.00 | 0.04 | 0.04 | 87 | 1180.2 |
| 20260505112937 | 46 | 210 | 3.0 | 5.0 | 0.00 | 0.04 | 0.04 | 87 | 1180.1 |
| 20260505112435 | 46 | 183 | 3.0 | 6.0 | 0.00 | 0.04 | 0.04 | 88 | 1180.2 |
| 20260505111932 | 46 | 176 | 5.0 | 5.0 | 0.00 | 0.04 | 0.04 | 88 | 1180.3 |
| 20260505111426 | 46 | 181 | 4.0 | 8.0 | 0.00 | 0.04 | 0.04 | 89 | 1180.1 |
| 20260505110923 | 46 | 214 | 5.0 | 7.0 | 0.00 | 0.04 | 0.04 | 89 | 1180.1 |
| 20260505110420 | 46 | 231 | 3.0 | 6.0 | 0.00 | 0.04 | 0.04 | 90 | 1180.1 |
| 20260505101850 | 46 | 182 | 5.0 | 7.0 | 0.00 | 0.04 | 0.04 | 90 | 1180.3 |
| 20260505101345 | 46 | 129 | 0.0 | 4.0 | 0.00 | 0.04 | 0.04 | 90 | 1180.4 |
| 20260505100841 | 46 | 199 | 2.0 | 5.0 | 0.00 | 0.04 | 0.04 | 90 | 1180.3 |
| 20260505100338 | 46 | 192 | 3.0 | 8.0 | 0.00 | 0.04 | 0.04 | 90 | 1180.4 |
| 20260505095834 | 46 | 231 | 3.0 | 5.0 | 0.00 | 0.04 | 0.04 | 91 | 1180.5 |
| 20260505095332 | 46 | 194 | 4.0 | 6.0 | 0.00 | 0.04 | 0.04 | 91 | 1180.5 |
| 20260505094827 | 46 | 236 | 3.0 | 7.0 | 0.00 | 0.04 | 0.04 | 91 | 1180.5 |
| 20260505094324 | 46 | 203 | 4.0 | 10.0 | 0.00 | 0.04 | 0.04 | 92 | 1180.5 |
| 20260505093820 | 46 | 215 | 9.0 | 9.0 | 0.00 | 0.04 | 0.04 | 92 | 1180.5 |
| 20260505093318 | 46 | 235 | 6.0 | 8.0 | 0.00 | 0.04 | 0.04 | 92 | 1180.5 |
| 20260505092814 | 46 | 233 | 3.0 | 4.0 | 0.00 | 0.04 | 0.04 | 92 | 1180.9 |
| 20260505092313 | 46 | 169 | 1.0 | 4.0 | 0.00 | 0.04 | 0.04 | 91 | 1181.1 |
| 20260505091810 | 46 | 207 | 4.0 | 8.0 | 0.02 | 0.04 | 0.04 | 91 | 1181.2 |
| 20260505091308 | 46 | 191 | 4.0 | 7.0 | 0.02 | 0.04 | 0.04 | 91 | 1181.0 |
| 20260505090806 | 46 | 210 | 5.0 | 7.0 | 0.00 | 0.04 | 0.04 | 91 | 1181.0 |
| 20260505090304 | 46 | 212 | 6.0 | 6.0 | 0.00 | 0.04 | 0.04 | 91 | 1181.1 |
| 20260505085800 | 46 | 218 | 4.0 | 10.0 | 0.00 | 0.04 | 0.04 | 91 | 1181.2 |
| 20260505085259 | 46 | 252 | 8.0 | 15.0 | 0.00 | 0.04 | 0.04 | 91 | 1180.6 |
| 20260505084755 | 46 | 188 | 5.0 | 13.0 | 0.00 | 0.04 | 0.04 | 91 | 1180.7 |
| 20260505084249 | 46 | 199 | 6.0 | 13.0 | 0.00 | 0.04 | 0.04 | 91 | 1180.9 |
| 20260505083745 | 46 | 238 | 3.0 | 7.0 | 0.00 | 0.04 | 0.04 | 91 | 1180.9 |
| 20260505083242 | 46 | 173 | 5.0 | 6.0 | 0.00 | 0.04 | 0.04 | 91 | 1181.0 |
| 20260505082738 | 46 | 227 | 5.0 | 6.0 | 0.00 | 0.04 | 0.04 | 90 | 1181.2 |
| 20260505082235 | 46 | 198 | 4.0 | 12.0 | 0.00 | 0.04 | 0.04 | 90 | 1181.0 |
| 20260505081731 | 46 | 208 | 3.0 | 6.0 | 0.02 | 0.04 | 0.04 | 90 | 1181.2 |
| 20260505081229 | 46 | 272 | 2.0 | 11.0 | 0.02 | 0.03 | 0.03 | 90 | 1181.2 |
| 20260505080726 | 46 | 234 | 4.0 | 13.0 | 0.09 | 0.03 | 0.03 | 90 | 1181.3 |
| 20260505080221 | 46 | 201 | 4.0 | 8.0 | 0.07 | 0.02 | 0.02 | 90 | 1181.2 |
| 20260505075717 | 46 | 267 | 3.0 | 9.0 | 0.05 | 0.02 | 0.02 | 89 | 1181.5 |
| 20260505075214 | 46 | 224 | 10.0 | 14.0 | 0.02 | 0.01 | 0.01 | 89 | 1181.1 |
| 20260505074712 | 46 | 226 | 6.0 | 13.0 | 0.00 | 0.01 | 0.01 | 89 | 1181.0 |
| 20260505074208 | 46 | 250 | 12.0 | 15.0 | 0.00 | 0.01 | 0.01 | 89 | 1181.0 |
| 20260505073706 | 46 | 235 | 12.0 | 17.0 | 0.00 | 0.01 | 0.01 | 89 | 1181.0 |
| 20260505073204 | 46 | 207 | 12.0 | 15.0 | 0.00 | 0.01 | 0.01 | 89 | 1181.0 |
| 20260505072659 | 46 | 219 | 4.0 | 11.0 | 0.00 | 0.01 | 0.01 | 89 | 1180.9 |
| 20260505072156 | 46 | 214 | 4.0 | 12.0 | 0.00 | 0.01 | 0.01 | 89 | 1180.6 |
| 20260505071652 | 46 | 202 | 4.0 | 10.0 | 0.02 | 0.01 | 0.01 | 89 | 1180.6 |
| 20260505071150 | 46 | 235 | 9.0 | 12.0 | 0.05 | 0.01 | 0.01 | 88 | 1180.9 |
| 20260505070646 | 46 | 204 | 6.0 | 9.0 | 0.09 | 0.00 | 0.00 | 88 | 1180.7 |
| 20260505070143 | 47 | 200 | 5.0 | 10.0 | 0.17 | 0.00 | 0.00 | 87 | 1181.0 |
| 20260505065639 | 47 | 246 | 8.0 | 12.0 | 0.17 | 0.16 | 0.16 | 86 | 1181.4 |
| 20260505065136 | 47 | 236 | 8.0 | 10.0 | 0.14 | 0.14 | 0.14 | 84 | 1181.5 |
| 20260505064632 | 47 | 221 | 7.0 | 13.0 | 0.09 | 0.13 | 0.13 | 84 | 1181.4 |
| 20260505064131 | 48 | 249 | 6.0 | 13.0 | 0.02 | 0.12 | 0.12 | 82 | 1181.2 |
| 20260505063628 | 48 | 257 | 3.0 | 7.0 | 0.02 | 0.11 | 0.11 | 83 | 1181.4 |
| 20260505063124 | 48 | 242 | 5.0 | 13.0 | 0.05 | 0.11 | 0.11 | 82 | 1181.0 |
| 20260505062620 | 48 | 236 | 8.0 | 18.0 | 0.05 | 0.11 | 0.11 | 81 | 1180.2 |
| 20260505062118 | 49 | 216 | 6.0 | 11.0 | 0.02 | 0.11 | 0.11 | 80 | 1180.6 |
| 20260505061615 | 49 | 215 | 9.0 | 11.0 | 0.00 | 0.10 | 0.10 | 78 | 1180.7 |
| 20260505061113 | 49 | 223 | 4.0 | 9.0 | 0.00 | 0.10 | 0.10 | 79 | 1180.9 |
| 20260505060610 | 49 | 218 | 6.0 | 12.0 | 0.00 | 0.10 | 0.10 | 78 | 1180.5 |
| 20260505060107 | 49 | 205 | 3.0 | 6.0 | 0.00 | 0.10 | 0.10 | 79 | 1180.4 |
| 20260505055602 | 49 | 191 | 4.0 | 9.0 | 0.00 | 0.10 | 0.10 | 79 | 1180.5 |
| 20260505055059 | 49 | 228 | 5.0 | 12.0 | 0.00 | 0.10 | 0.10 | 78 | 1180.7 |
| 20260505054556 | 49 | 207 | 5.0 | 12.0 | 0.00 | 0.10 | 0.10 | 77 | 1180.4 |
| 20260505054054 | 50 | 246 | 7.0 | 11.0 | 0.00 | 0.10 | 0.10 | 76 | 1180.5 |
| 20260505053551 | 50 | 233 | 9.0 | 15.0 | 0.00 | 0.10 | 0.10 | 76 | 1180.6 |
| 20260505053048 | 49 | 260 | 8.0 | 17.0 | 0.00 | 0.10 | 0.10 | 77 | 1180.4 |
| 20260505052544 | 49 | 233 | 7.0 | 13.0 | 0.00 | 0.10 | 0.10 | 78 | 1180.5 |
| 20260505052042 | 49 | 241 | 10.0 | 16.0 | 0.00 | 0.10 | 0.10 | 77 | 1180.5 |
| 20260505051539 | 49 | 246 | 6.0 | 11.0 | 0.00 | 0.10 | 0.10 | 78 | 1180.7 |
| 20260505051037 | 49 | 259 | 8.0 | 13.0 | 0.00 | 0.10 | 0.10 | 77 | 1180.7 |
| 20260505050535 | 49 | 235 | 10.0 | 13.0 | 0.00 | 0.10 | 0.10 | 75 | 1180.6 |
| 20260505041502 | 49 | 228 | 6.0 | 11.0 | 0.00 | 0.10 | 0.10 | 76 | 1180.5 |
| 20260505041000 | 49 | 206 | 4.0 | 12.0 | 0.00 | 0.10 | 0.10 | 78 | 1180.6 |
| 20260505040457 | 50 | 224 | 5.0 | 7.0 | 0.00 | 0.10 | 0.10 | 78 | 1180.7 |
| 20260505035954 | 49 | 256 | 7.0 | 9.0 | 0.00 | 0.10 | 0.10 | 77 | 1180.4 |
| 20260505035450 | 49 | 234 | 6.0 | 7.0 | 0.00 | 0.10 | 0.10 | 79 | 1180.5 |
| 20260505034947 | 49 | 241 | 5.0 | 6.0 | 0.00 | 0.10 | 0.10 | 79 | 1180.4 |
| 20260505034444 | 49 | 205 | 4.0 | 8.0 | 0.00 | 0.10 | 0.10 | 79 | 1180.0 |
| 20260505033941 | 49 | 237 | 7.0 | 10.0 | 0.00 | 0.10 | 0.10 | 80 | 1180.0 |
| 20260505033437 | 49 | 217 | 9.0 | 11.0 | 0.00 | 0.10 | 0.10 | 80 | 1179.7 |
| 20260505032936 | 49 | 208 | 7.0 | 9.0 | 0.00 | 0.10 | 0.10 | 79 | 1180.0 |
| 20260505032433 | 49 | 205 | 4.0 | 8.0 | 0.00 | 0.10 | 0.10 | 80 | 1180.2 |
| 20260505031929 | 49 | 213 | 9.0 | 13.0 | 0.00 | 0.10 | 0.10 | 79 | 1180.2 |
| 20260505031426 | 49 | 232 | 9.0 | 12.0 | 0.00 | 0.10 | 0.10 | 78 | 1180.4 |
| 20260505030923 | 49 | 237 | 9.0 | 11.0 | 0.00 | 0.10 | 0.10 | 79 | 1180.5 |
| 20260505030419 | 49 | 237 | 11.0 | 13.0 | 0.00 | 0.10 | 0.10 | 80 | 1180.4 |
| 20260505025914 | 49 | 201 | 9.0 | 15.0 | 0.00 | 0.10 | 0.10 | 81 | 1180.5 |
| 20260505025412 | 49 | 218 | 8.0 | 14.0 | 0.00 | 0.10 | 0.10 | 80 | 1180.3 |
| 20260505024911 | 50 | 226 | 9.0 | 14.0 | 0.00 | 0.10 | 0.10 | 80 | 1180.4 |
| 20260505024408 | 50 | 227 | 11.0 | 14.0 | 0.00 | 0.10 | 0.10 | 82 | 1180.5 |
| 20260505023905 | 50 | 263 | 7.0 | 15.0 | 0.00 | 0.10 | 0.10 | 81 | 1180.4 |
| 20260505023402 | 50 | 242 | 8.0 | 13.0 | 0.00 | 0.10 | 0.10 | 81 | 1180.4 |
| 20260505022859 | 50 | 213 | 5.0 | 14.0 | 0.00 | 0.10 | 0.10 | 82 | 1180.3 |
| 20260505022356 | 50 | 250 | 9.0 | 11.0 | 0.00 | 0.10 | 0.10 | 82 | 1180.2 |
| 20260505021853 | 50 | 234 | 11.0 | 16.0 | 0.00 | 0.10 | 0.10 | 82 | 1180.3 |
| 20260505021349 | 50 | 214 | 16.0 | 17.0 | 0.00 | 0.10 | 0.10 | 81 | 1180.1 |
| 20260505020845 | 50 | 244 | 6.0 | 13.0 | 0.00 | 0.10 | 0.10 | 82 | 1180.1 |
| 20260505020341 | 50 | 250 | 5.0 | 12.0 | 0.00 | 0.10 | 0.10 | 82 | 1180.1 |
| 20260505015838 | 50 | 230 | 8.0 | 17.0 | 0.00 | 0.10 | 0.10 | 83 | 1179.8 |
| 20260505015335 | 50 | 252 | 6.0 | 13.0 | 0.00 | 0.10 | 0.10 | 82 | 1179.7 |
| 20260505014833 | 50 | 230 | 10.0 | 16.0 | 0.00 | 0.10 | 0.10 | 82 | 1179.5 |
| 20260505014329 | 51 | 223 | 6.0 | 15.0 | 0.00 | 0.10 | 0.10 | 81 | 1179.3 |
| 20260505013826 | 51 | 223 | 6.0 | 13.0 | 0.00 | 0.10 | 0.10 | 82 | 1179.3 |
| 20260505013323 | 51 | 216 | 10.0 | 15.0 | 0.00 | 0.10 | 0.10 | 81 | 1179.2 |
| 20260505012822 | 51 | 246 | 8.0 | 15.0 | 0.00 | 0.10 | 0.10 | 81 | 1179.6 |
| 20260505012319 | 51 | 220 | 9.0 | 14.0 | 0.00 | 0.10 | 0.10 | 81 | 1179.5 |
| 20260505011815 | 51 | 227 | 7.0 | 13.0 | 0.05 | 0.10 | 0.10 | 81 | 1180.0 |
| 20260505011312 | 51 | 248 | 9.0 | 11.0 | 0.07 | 0.10 | 0.10 | 81 | 1180.5 |
| 20260505010808 | 51 | 267 | 6.0 | 12.0 | 0.02 | 0.09 | 0.09 | 79 | 1180.3 |
| 20260505010304 | 51 | 260 | 6.0 | 8.0 | 0.02 | 0.09 | 0.09 | 81 | 1180.7 |
| 20260505005800 | 51 | 277 | 4.0 | 10.0 | 0.02 | 0.09 | 0.09 | 80 | 1180.7 |
| 20260505005257 | 51 | 253 | 4.0 | 10.0 | 0.00 | 0.09 | 0.09 | 81 | 1181.0 |
| 20260505004755 | 51 | 280 | 5.0 | 8.0 | 0.00 | 0.09 | 0.09 | 81 | 1180.5 |
| 20260505004250 | 51 | 255 | 7.0 | 9.0 | 0.00 | 0.09 | 0.09 | 80 | 1180.9 |
| 20260505003748 | 51 | 227 | 3.0 | 6.0 | 0.00 | 0.09 | 0.09 | 80 | 1181.0 |
| 20260505003246 | 51 | 228 | 5.0 | 9.0 | 0.00 | 0.09 | 0.09 | 81 | 1180.6 |
| 20260505002742 | 51 | 273 | 8.0 | 11.0 | 0.00 | 0.09 | 0.09 | 79 | 1180.4 |
| 20260505002239 | 51 | 240 | 6.0 | 13.0 | 0.00 | 0.09 | 0.09 | 79 | 1180.3 |
| 20260505001737 | 51 | 239 | 5.0 | 10.0 | 0.00 | 0.09 | 0.09 | 80 | 1180.3 |
| 20260505001234 | 51 | 243 | 9.0 | 10.0 | 0.00 | 0.09 | 0.09 | 80 | 1180.2 |
| 20260505000731 | 51 | 226 | 7.0 | 7.0 | 0.00 | 0.09 | 0.09 | 81 | 1180.3 |
| 20260505000229 | 51 | 228 | 7.0 | 13.0 | 0.00 | 0.09 | 0.09 | 81 | 1180.3 |
| 20260504235725 | 51 | 222 | 3.0 | 12.0 | 0.02 | 0.09 | 0.09 | 81 | 1180.2 |
| 20260504235221 | 51 | 193 | 4.0 | 6.0 | 0.07 | 0.09 | 0.09 | 80 | 1180.3 |
| 20260504234719 | 51 | 261 | 4.0 | 12.0 | 0.14 | 0.08 | 0.08 | 79 | 1180.1 |
| 20260504234216 | 52 | 225 | 10.0 | 11.0 | 0.12 | 0.07 | 0.07 | 78 | 1180.1 |
| 20260504233712 | 52 | 218 | 10.0 | 14.0 | 0.17 | 0.06 | 0.06 | 77 | 1180.1 |
| 20260504233208 | 54 | 209 | 6.0 | 17.0 | 0.07 | 0.04 | 0.04 | 74 | 1179.6 |
| 20260504232705 | 55 | 225 | 11.0 | 18.0 | 0.00 | 0.03 | 0.03 | 67 | 1179.6 |
| 20260504232202 | 55 | 202 | 6.0 | 18.0 | 0.00 | 0.03 | 0.03 | 65 | 1179.6 |
| 20260504231659 | 55 | 228 | 9.0 | 17.0 | 0.00 | 0.03 | 0.03 | 65 | 1180.0 |
| 20260504231155 | 55 | 198 | 6.0 | 16.0 | 0.00 | 0.03 | 0.03 | 65 | 1179.7 |